Wind_Speed
13 13 13 14 14 12 7 7 6 6 5 5 4 5 5 5 5 6 5 4 4 4 4 4 5 4 3 2 2 1 1 1 1 1 1 0 1 2 3 3 3 3 3 3 4 5 6 6 7
13 12 13 15 12 8 7 7 7 6 6 6 6 6 5 5 6 6 5 5 5 5 5 5 5 5 4 3 2 2 2 1 2 1 1 0 0 1 2 3 3 3 2 3 4 4 4 5 6
13 13 15 14 9 7 7 7 7 7 6 6 6 7 6 6 7 7 6 6 6 6 7 6 5 5 5 4 3 2 2 2 2 1 0 0 1 1 1 1 2 2 2 3 3 3 3 4 5
12 15 16 11 8 7 7 7 7 7 6 6 7 7 8 6 7 7 7 7 7 7 7 7 6 6 6 5 4 3 3 3 3 2 1 1 1 2 2 2 2 2 2 2 1 2 2 3 4
14 16 14 8 7 7 7 7 7 7 7 7 7 8 8 8 7 8 8 8 7 7 7 8 7 6 6 5 4 4 4 3 3 3 3 2 1 2 2 2 2 1 2 2 1 1 2 2 3
14 14 11 7 8 7 7 7 7 7 7 7 7 8 8 9 8 8 8 8 8 7 8 8 7 7 6 6 5 4 4 3 3 4 4 4 3 2 1 1 1 1 1 0 1 1 2 2 3
13 14 10 7 8 7 7 7 7 7 8 8 9 8 8 9 9 9 8 8 8 7 8 8 8 7 6 6 5 5 4 4 4 4 4 5 4 3 1 1 0 1 1 1 1 2 1 2 2
12 12 9 7 7 7 7 7 7 7 8 8 9 9 9 9 9 9 8 8 8 7 7 7 7 8 7 6 5 5 5 5 4 4 5 4 4 3 2 2 1 1 1 1 1 1 2 2 1
11 10 8 8 8 7 7 7 7 7 7 8 10 10 9 9 9 10 9 9 8 8 7 7 8 8 7 7 6 6 6 6 5 4 4 5 4 4 3 3 1 1 1 1 2 2 2 2 2
8 7 7 7 7 7 8 7 7 8 8 8 9 10 10 10 10 9 9 10 10 8 8 8 8 8 8 7 7 7 6 6 6 5 4 5 5 5 4 3 3 3 2 2 3 2 2 2 2
7 7 6 7 7 7 8 8 8 8 8 8 9 10 10 10 11 10 9 10 10 9 8 8 8 8 8 7 7 8 8 7 7 7 7 6 5 5 5 5 4 4 4 3 3 3 3 2 2
6 5 5 6 6 6 7 8 8 8 8 8 9 10 10 10 11 11 10 10 9 9 9 9 8 8 8 7 7 8 8 7 6 7 7 6 5 5 5 5 4 4 4 4 3 4 3 2 2
5 5 5 6 7 7 7 7 8 8 8 8 9 9 10 10 11 11 11 10 10 9 9 9 9 8 8 8 7 7 7 7 6 7 6 6 5 4 5 4 4 3 3 3 3 2 2 3 3
5 5 5 6 7 7 7 7 8 8 8 8 9 9 10 10 11 11 11 11 10 10 9 8 8 8 8 8 8 7 7 7 7 6 6 6 6 5 4 4 4 3 2 2 2 2 3 4 4
6 6 6 7 7 8 7 7 8 9 9 9 9 10 10 10 11 11 11 11 10 10 9 8 8 8 7 8 8 8 8 8 8 7 7 6 5 5 4 3 3 2 2 4 4 5 4 5 5
6 6 5 6 7 8 8 8 7 8 8 9 9 10 10 10 10 10 11 11 11 10 10 9 9 8 8 8 8 8 8 9 8 7 7 6 5 5 5 4 4 5 3 4 6 5 5 5 5
3 4 5 5 6 7 8 8 9 8 8 9 9 10 10 9 10 10 10 11 11 11 10 9 9 8 8 8 8 9 8 8 9 8 8 8 8 7 6 6 6 6 6 6 6 6 6 6 6
1 3 3 4 5 5 6 8 8 8 8 9 10 10 10 9 10 10 10 11 10 10 10 9 9 8 8 8 8 8 8 8 8 8 8 8 8 8 8 7 7 6 6 7 7 6 6 6 6
2 1 2 2 3 4 6 8 8 7 7 8 10 10 9 9 9 10 10 10 10 10 10 9 8 8 8 8 8 8 8 8 8 8 8 8 8 8 8 8 7 7 6 7 8 7 8 8 8
3 2 2 2 2 5 6 8 8 10 9 7 9 10 9 9 9 10 10 10 10 10 9 9 8 8 8 8 8 7 8 8 8 9 8 8 8 8 8 8 7 7 7 8 8 8 8 8 8
3 4 4 3 3 5 7 9 7 8 9 7 9 10 9 8 9 9 9 9 10 10 9 9 8 8 8 8 8 7 8 8 8 8 8 8 8 8 8 8 8 8 8 8 8 8 8 8 9
5 4 4 4 5 7 8 10 8 9 11 9 8 9 9 8 9 9 9 9 9 9 9 9 8 8 8 8 7 8 8 8 8 8 8 8 8 8 9 8 8 8 9 9 8 9 10 10 10
8 6 6 6 6 6 7 10 10 10 11 11 9 9 9 7 8 8 9 9 9 9 9 9 9 9 8 8 7 8 8 8 8 8 8 8 9 9 9 9 9 10 10 10 10 10 11 11 11
8 7 7 5 6 8 7 10 11 12 13 11 10 10 9 8 9 8 8 9 9 9 9 9 9 9 9 8 8 8 8 8 9 9 8 9 9 10 10 10 11 11 11 11 11 11 12 12 12
9 8 6 5 7 8 7 10 11 11 12 11 12 11 10 10 10 9 8 8 9 10 10 10 10 10 10 9 9 9 9 10 10 9 9 9 9 11 11 11 12 12 12 12 12 12 13 13 13
10 9 8 7 7 7 7 10 10 10 11 12 12 12 11 11 11 11 10 9 9 10 10 10 10 10 10 10 10 10 11 11 10 11 10 10 10 11 11 12 13 13 14 13 13 14 13 14 14
10 11 10 9 9 10 10 11 10 12 13 12 12 12 11 12 12 11 11 11 11 11 10 10 10 10 11 11 11 11 11 11 11 11 11 11 11 11 12 13 13 14 14 15 15 15 14 15 15
12 12 11 11 11 11 10 10 11 13 13 14 13 11 11 12 12 13 13 11 11 12 12 12 12 11 11 12 12 12 12 12 12 12 12 12 12 12 13 14 15 15 15 15 15 15 16 16 16
13 12 12 11 12 11 10 9 11 13 15 14 14 14 13 13 13 14 13 11 11 12 13 13 13 13 14 13 13 13 13 13 12 13 14 14 14 14 14 14 15 16 16 16 16 16 16 17 17
15 14 14 13 13 12 12 12 13 13 14 15 15 14 14 13 13 15 15 14 13 14 14 14 15 16 16 15 15 14 14 14 14 15 15 16 16 16 16 16 17 17 18 17 17 17 17 18 18
Wind_Direction
77 80 78 72 64 57 47 55 54 57 52 54 52 51 54 53 52 47 41 42 49 49 40 38 30 34 37 40 58 63 85 94 129 156 122 143 150 159 166 174 183 183 195 214 230 240 244 236 234
78 82 77 68 60 49 38 51 50 51 48 48 48 46 50 55 53 51 47 51 52 45 39 31 27 31 30 30 65 72 74 99 121 138 122 168 171 138 155 176 182 183 195 222 233 236 239 240 244
84 79 72 63 50 46 41 51 47 49 46 45 46 42 47 52 51 51 49 52 50 43 40 35 35 39 37 38 55 54 66 84 97 114 160 265 249 265 250 216 205 204 224 247 249 237 237 239 236
81 74 67 61 48 44 46 47 39 42 44 42 42 40 43 48 48 52 49 47 47 41 36 36 42 42 44 47 53 51 70 84 72 67 39 320 265 236 233 237 235 241 265 275 248 241 237 241 243
78 70 66 54 51 44 39 43 37 39 39 38 39 38 42 42 46 52 51 48 45 40 39 40 42 43 42 44 49 44 59 63 57 50 40 33 352 259 240 230 215 245 275 267 227 261 243 253 269
72 75 68 42 41 43 40 42 39 41 39 35 39 37 37 37 40 46 49 47 45 42 42 42 43 42 40 42 47 38 48 47 51 51 44 48 62 90 162 180 235 279 312 317 339 335 294 276 268
70 74 64 30 26 34 33 38 36 39 36 35 37 37 34 37 39 41 44 45 41 41 39 39 40 38 37 40 44 39 35 35 35 50 53 53 64 80 103 171 145 87 52 19 358 5 299 292 287
63 69 62 34 23 20 25 32 36 38 35 34 38 40 42 41 41 39 37 34 34 34 33 36 34 34 31 32 37 35 33 34 36 48 60 62 65 75 78 88 109 110 60 333 321 22 63 29 56
66 66 58 40 32 27 23 29 37 38 36 37 39 39 39 40 40 37 35 33 30 29 31 35 32 32 29 29 30 34 33 32 28 36 50 61 64 66 73 70 73 97 89 63 63 55 30 33 67
66 67 58 45 40 34 27 31 34 38 39 37 37 35 35 36 37 37 35 32 30 29 30 30 33 34 33 36 34 32 35 35 36 44 47 51 61 62 66 65 58 58 57 61 53 38 42 49 68
65 62 50 44 37 37 37 36 38 36 34 36 33 31 32 32 33 33 31 32 33 32 31 32 33 30 31 36 38 36 39 43 46 56 57 57 55 54 58 55 56 47 47 55 58 53 39 42 54
57 58 55 49 41 35 41 41 36 31 29 29 30 30 29 30 31 33 31 33 34 35 35 34 33 31 31 35 37 39 46 50 50 53 56 55 54 50 47 44 41 40 40 47 50 40 30 51 62
44 41 47 41 41 38 36 35 29 26 23 24 28 29 32 32 31 33 34 33 34 34 35 35 33 32 32 31 33 38 44 49 46 46 46 43 43 40 32 35 32 32 41 42 39 23 20 35 32
61 43 34 33 32 28 30 32 20 21 23 20 24 25 30 32 33 34 33 32 32 30 30 31 31 31 32 33 32 36 42 37 33 34 37 38 33 26 23 21 18 17 21 31 29 20 19 23 20
66 50 28 22 24 14 17 25 13 13 16 16 20 23 27 29 29 29 29 29 29 29 30 30 29 30 31 32 33 36 33 29 28 30 33 34 35 28 24 22 18 28 43 42 31 33 26 17 8
41 37 21 8 14 8 7 5 7 11 13 13 17 19 20 22 23 23 23 24 25 27 32 32 32 33 35 35 32 32 32 34 32 29 29 34 32 31 30 21 15 19 25 15 13 15 9 3 359
12 10 357 350 357 4 356 356 3 6 7 7 12 15 15 17 18 19 21 23 25 27 31 32 35 36 37 38 33 32 36 36 35 33 37 37 34 36 36 26 25 26 19 11 9 12 7 358 350
52 355 337 331 347 357 343 348 356 356 354 358 3 11 11 13 12 13 17 22 25 27 29 30 33 34 34 36 34 31 29 28 28 33 34 31 28 27 29 27 27 22 15 9 4 2 359 355 351
204 258 281 310 331 320 331 335 342 346 348 349 355 2 5 7 8 11 13 17 20 23 24 26 27 27 30 30 30 29 27 25 25 30 31 29 26 24 23 18 16 12 7 1 356 349 348 347 344
234 261 281 313 317 306 313 327 331 338 341 350 345 349 356 360 3 7 10 10 12 15 17 18 18 20 21 20 19 21 21 20 19 19 20 23 22 19 16 15 7 5 1 356 351 346 345 345 342
232 243 248 259 301 309 316 319 314 330 331 339 338 337 344 353 358 358 0 2 4 7 8 10 11 12 16 14 15 12 12 11 13 13 15 15 14 10 5 3 360 358 356 353 349 345 343 338 334
242 234 242 260 276 284 306 309 315 324 319 326 329 330 331 343 352 351 351 355 357 357 358 359 359 0 2 5 8 8 3 3 3 4 4 4 4 0 0 356 354 353 351 350 349 344 337 333 331
235 230 236 243 253 269 287 293 309 312 313 319 319 320 327 332 343 344 346 348 350 351 352 354 353 351 350 351 354 355 352 352 353 352 352 352 353 352 351 352 352 348 347 347 343 338 334 332 329
238 241 250 252 255 266 267 282 293 300 306 313 313 305 313 318 325 330 335 338 340 344 345 344 345 344 343 342 342 343 342 342 339 340 348 350 349 346 345 343 342 339 339 339 337 334 333 331 327
234 237 246 253 258 261 265 271 280 292 299 304 302 303 311 315 312 317 320 326 329 332 338 338 337 336 335 336 335 332 332 332 331 334 339 343 342 341 339 339 336 334 333 333 332 331 329 327 324
239 241 249 255 262 276 263 266 276 285 290 297 301 303 305 306 303 303 309 312 315 320 327 328 327 327 328 330 327 324 326 328 327 329 332 336 338 337 336 336 335 333 332 331 329 328 326 325 322
237 244 249 253 252 255 260 272 282 288 289 291 297 297 296 296 296 297 299 303 306 311 314 318 319 320 322 323 321 320 323 325 325 326 327 331 333 332 334 331 331 330 330 330 328 327 323 324 323
242 243 249 252 260 259 263 272 277 290 289 288 291 290 290 292 294 296 291 296 303 304 306 310 313 315 319 319 318 313 313 315 317 320 325 327 329 328 326 326 327 327 328 329 328 326 323 323 321
248 247 243 245 253 248 258 267 274 278 284 287 286 288 290 291 291 298 296 297 305 302 301 304 309 309 308 309 312 312 311 312 313 315 317 319 322 324 322 322 323 325 325 324 322 321 321 320 318
246 243 246 246 254 256 259 261 265 270 280 283 281 283 284 285 285 289 294 295 299 299 301 304 305 307 306 306 306 304 306 307 308 309 311 314 315 317 318 319 320 321 322 320 319 318 317 317 317
Height
5891 5891 5891 5891 5890 5891 5890 5889 5888 5887 5887 5886 5885 5884 5883 5883 5883 5884 5881 5879 5878 5877 5877 5876 5875 5875 5874 5874 5873 5873 5873 5873 5874 5874 5874 5874 5874 5873 5873 5873 5873 5874 5875 5875 5876 5877 5877 5878 5879
5893 5893 5893 5892 5893 5893 5892 5890 5890 5889 5888 5887 5886 5886 5885 5884 5883 5882 5881 5880 5880 5878 5878 5876 5876 5875 5875 5874 5874 5874 5874 5874 5874 5874 5874 5874 5874 5874 5873 5874 5874 5874 5875 5875 5876 5876 5877 5878 5878
5896 5895 5894 5895 5896 5896 5894 5892 5892 5891 5890 5889 5888 5888 5887 5886 5885 5883 5882 5881 5881 5880 5879 5878 5877 5876 5876 5875 5875 5875 5875 5875 5875 5875 5875 5874 5874 5874 5874 5874 5875 5875 5875 5875 5876 5876 5877 5877 5877
5897 5896 5897 5900 5899 5897 5896 5895 5894 5893 5892 5891 5890 5890 5888 5887 5886 5885 5884 5883 5882 5881 5880 5879 5878 5878 5877 5876 5876 5876 5875 5875 5875 5875 5875 5874 5874 5874 5874 5875 5875 5876 5875 5876 5876 5876 5876 5876 5876
5899 5898 5900 5902 5900 5900 5898 5897 5896 5895 5894 5893 5893 5891 5890 5889 5888 5886 5885 5884 5883 5882 5881 5880 5879 5879 5878 5878 5877 5877 5877 5876 5876 5875 5875 5874 5873 5873 5873 5874 5876 5876 5876 5876 5876 5875 5875 5875 5875
5900 5899 5904 5903 5902 5902 5900 5899 5898 5897 5896 5895 5894 5893 5892 5891 5890 5888 5887 5886 5885 5884 5883 5882 5881 5880 5880 5879 5879 5878 5878 5877 5877 5876 5875 5874 5873 5872 5873 5874 5875 5875 5876 5876 5876 5875 5875 5874 5874
5903 5903 5905 5905 5904 5903 5902 5901 5900 5899 5898 5897 5896 5895 5894 5892 5891 5890 5889 5888 5887 5886 5884 5884 5882 5882 5881 5881 5880 5879 5879 5878 5878 5877 5876 5876 5875 5875 5875 5875 5875 5876 5876 5876 5876 5876 5874 5873 5872
5906 5908 5907 5907 5906 5905 5904 5903 5902 5901 5900 5899 5898 5897 5896 5894 5893 5891 5890 5889 5888 5887 5886 5885 5884 5883 5883 5882 5881 5880 5880 5879 5879 5878 5878 5877 5877 5877 5876 5876 5877 5877 5877 5877 5876 5876 5874 5873 5872
5910 5911 5910 5910 5909 5907 5906 5905 5904 5903 5902 5901 5900 5899 5898 5896 5895 5893 5892 5891 5890 5889 5888 5887 5886 5885 5884 5883 5882 5881 5881 5880 5880 5879 5879 5878 5878 5878 5878 5878 5878 5877 5877 5877 5876 5877 5875 5875 5874
5913 5913 5912 5911 5911 5909 5908 5907 5906 5905 5904 5903 5902 5901 5899 5898 5897 5895 5894 5892 5891 5890 5889 5888 5887 5886 5885 5885 5884 5883 5882 5881 5881 5880 5880 5879 5879 5879 5879 5879 5879 5878 5878 5878 5878 5877 5877 5876 5876
5914 5914 5914 5913 5912 5911 5910 5909 5908 5907 5906 5905 5904 5902 5901 5900 5898 5897 5895 5894 5893 5892 5891 5890 5889 5888 5887 5886 5885 5884 5883 5883 5882 5881 5881 5881 5881 5880 5880 5880 5880 5879 5879 5879 5879 5879 5879 5878 5877
5916 5916 5915 5914 5913 5912 5912 5911 5910 5909 5908 5907 5906 5904 5903 5901 5900 5898 5897 5896 5895 5893 5892 5891 5890 5889 5888 5888 5887 5885 5885 5884 5884 5883 5883 5882 5882 5882 5881 5881 5881 5881 5880 5880 5880 5880 5880 5879 5879
5918 5917 5916 5916 5915 5914 5913 5913 5912 5911 5910 5908 5907 5906 5904 5903 5901 5900 5899 5897 5896 5895 5894 5893 5892 5891 5890 5889 5888 5887 5886 5886 5885 5884 5884 5883 5883 5883 5882 5882 5882 5881 5881 5881 5881 5881 5881 5881 5881
5919 5918 5917 5917 5917 5916 5915 5915 5913 5912 5911 5910 5909 5907 5906 5904 5903 5901 5900 5899 5898 5897 5896 5895 5894 5892 5892 5891 5890 5889 5888 5887 5886 5886 5885 5884 5884 5883 5883 5883 5882 5882 5881 5881 5882 5882 5882 5882 5881
5919 5919 5919 5918 5918 5917 5917 5916 5915 5913 5913 5912 5910 5909 5907 5906 5904 5903 5902 5901 5900 5898 5897 5896 5895 5894 5893 5892 5891 5890 5889 5888 5888 5887 5886 5886 5885 5884 5884 5883 5883 5883 5882 5882 5883 5883 5883 5882 5882
5920 5921 5920 5920 5919 5918 5919 5918 5916 5915 5914 5913 5912 5910 5909 5907 5906 5904 5903 5902 5901 5900 5898 5897 5896 5895 5894 5893 5892 5891 5890 5890 5889 5888 5888 5887 5886 5885 5885 5884 5884 5884 5884 5883 5883 5883 5883 5882 5882
5922 5923 5923 5922 5921 5920 5920 5918 5917 5916 5915 5914 5913 5912 5910 5909 5907 5906 5904 5903 5902 5901 5900 5899 5898 5897 5896 5895 5894 5893 5892 5891 5890 5890 5889 5888 5888 5887 5886 5885 5885 5885 5885 5884 5884 5883 5882 5882 5881
5924 5924 5924 5924 5923 5922 5921 5920 5918 5917 5916 5915 5913 5912 5911 5910 5909 5907 5906 5904 5903 5902 5901 5900 5899 5898 5897 5896 5895 5894 5893 5893 5892 5891 5890 5889 5889 5888 5887 5886 5886 5885 5885 5885 5884 5883 5882 5882 5881
5924 5925 5925 5924 5923 5923 5922 5921 5919 5917 5916 5916 5914 5913 5912 5911 5910 5909 5907 5906 5905 5904 5903 5902 5901 5899 5898 5897 5897 5896 5895 5894 5893 5892 5891 5890 5889 5889 5888 5887 5887 5886 5885 5885 5884 5883 5882 5881 5880
5924 5924 5924 5924 5924 5923 5922 5921 5920 5918 5917 5916 5915 5914 5913 5912 5911 5910 5908 5907 5906 5905 5904 5903 5902 5901 5900 5899 5898 5897 5896 5895 5894 5893 5892 5891 5890 5890 5889 5888 5887 5886 5885 5884 5883 5882 5881 5881 5880
5922 5923 5924 5924 5924 5923 5922 5922 5920 5920 5917 5916 5915 5914 5913 5913 5911 5910 5909 5908 5907 5906 5904 5904 5903 5902 5901 5900 5899 5898 5897 5896 5895 5894 5893 5892 5891 5890 5889 5888 5887 5886 5885 5884 5883 5882 5881 5880 5879
5922 5922 5923 5923 5923 5923 5923 5921 5918 5919 5917 5916 5915 5914 5913 5913 5912 5911 5910 5908 5907 5906 5905 5904 5903 5903 5902 5901 5900 5899 5898 5897 5896 5895 5894 5893 5892 5890 5889 5888 5887 5886 5885 5884 5883 5882 5880 5879 5878
5920 5921 5921 5922 5922 5922 5922 5921 5919 5918 5917 5915 5914 5914 5912 5912 5912 5911 5910 5909 5908 5907 5906 5904 5904 5903 5902 5901 5900 5900 5899 5897 5896 5895 5894 5893 5892 5891 5889 5888 5887 5886 5884 5883 5882 5881 5879 5878 5876
5918 5919 5919 5920 5920 5922 5922 5922 5920 5918 5916 5915 5914 5913 5912 5911 5911 5910 5909 5909 5908 5907 5906 5905 5904 5903 5902 5901 5900 5900 5899 5898 5897 5895 5894 5893 5891 5890 5889 5887 5886 5885 5884 5882 5881 5879 5878 5876 5874
5916 5917 5917 5918 5919 5920 5922 5920 5920 5917 5916 5915 5913 5911 5911 5910 5910 5909 5909 5908 5907 5906 5905 5904 5904 5903 5902 5901 5900 5900 5899 5898 5896 5895 5894 5892 5891 5890 5888 5887 5885 5884 5882 5880 5879 5877 5876 5874 5872
5914 5915 5916 5918 5919 5919 5919 5918 5917 5916 5915 5913 5912 5910 5910 5909 5908 5907 5907 5907 5906 5905 5904 5904 5903 5902 5902 5901 5900 5899 5898 5897 5896 5895 5893 5892 5891 5889 5887 5886 5884 5882 5880 5878 5877 5875 5874 5872 5870
5911 5912 5914 5916 5916 5917 5917 5916 5914 5914 5913 5913 5912 5910 5910 5909 5908 5907 5906 5905 5905 5904 5903 5902 5902 5901 5901 5900 5899 5898 5897 5896 5895 5894 5892 5891 5889 5888 5886 5885 5883 5881 5878 5876 5875 5873 5871 5869 5867
5909 5911 5912 5912 5913 5913 5914 5913 5913 5912 5911 5911 5910 5909 5908 5907 5907 5906 5904 5903 5903 5903 5902 5901 5900 5900 5899 5899 5898 5897 5896 5895 5894 5893 5891 5889 5888 5886 5885 5883 5881 5879 5876 5874 5872 5871 5868 5866 5864
5907 5908 5908 5909 5910 5911 5911 5912 5910 5910 5909 5909 5908 5907 5906 5906 5905 5904 5902 5901 5901 5901 5900 5900 5899 5898 5898 5897 5896 5895 5895 5893 5892 5891 5889 5888 5886 5884 5882 5880 5878 5876 5874 5872 5870 5868 5865 5863 5861
5903 5904 5906 5907 5907 5907 5908 5910 5906 5907 5907 5906 5905 5904 5903 5903 5903 5902 5900 5899 5899 5899 5898 5897 5896 5896 5895 5894 5894 5893 5892 5891 5890 5888 5887 5885 5884 5882 5880 5878 5876 5874 5871 5869 5867 5864 5862 5860 5858